When you browse on this site, cookies collect data to enhance your experience and personalize the content and advertising you see.
Visit our Privacy Policy to learn more. By continuing to use the site, you agree to this use of cookies and data.
  • en Suisse
  • Liste des pays
  • À 7 jours
  • Température de l'eau
  • Carte satellitaire
  • Carte météo
  • Widgets météo
  • user-avatar
    Se connecter

    Météo par heure à Pirmasens

    Ce jour, 22 Juillet, Lundi

    Heure Température Précipitation Vent Pression Humidité
    00:00 +16°C° 0 mm 1 m/s 734 mmHg 82%
    01:00 +15°C° 0 mm 0 m/s 734 mmHg 84%
    02:00 +14°C° 0 mm 0 m/s 734 mmHg 84%
    03:00 +14°C° 0 mm 0 m/s 734 mmHg 85%
    04:00 +14°C° 0 mm 0 m/s 734 mmHg 86%
    05:00 +15°C° 0 mm 0 m/s 734 mmHg 83%
    06:00 +16°C° 0 mm 0 m/s 734 mmHg 81%
    07:00 +17°C° 0 mm 0 m/s 734 mmHg 78%
    08:00 +19°C° 0 mm 0 m/s 735 mmHg 70%
    09:00 +23°C° 0 mm 1 m/s 735 mmHg 62%
    10:00 +25°C° 0 mm 1 m/s 736 mmHg 54%
    11:00 +26°C° 0 mm 1 m/s 736 mmHg 50%
    12:00 +27°C° 0 mm 1 m/s 735 mmHg 45%
    13:00 +28°C° 0 mm 1 m/s 735 mmHg 41%
    14:00 +28°C° 0 mm 1 m/s 735 mmHg 41%
    15:00 +29°C° 0 mm 1 m/s 735 mmHg 41%
    16:00 +29°C° 0 mm 1 m/s 735 mmHg 40%
    17:00 +28°C° 0 mm 1 m/s 735 mmHg 47%
    18:00 +26°C° 0 mm 1 m/s 734 mmHg 53%
    19:00 +25°C° 0 mm 1 m/s 734 mmHg 60%
    20:00 +23°C° 0 mm 1 m/s 734 mmHg 62%
    21:00 +22°C° 0 mm 1 m/s 734 mmHg 64%
    22:00 +20°C° 0 mm 1 m/s 734 mmHg 66%
    23:00 +20°C° 0 mm 1 m/s 734 mmHg 67%

    Demain, 23 Juillet, Mardi

    Heure Température Précipitation Vent Pression Humidité
    00:00 +19°C° 0 mm 1 m/s 734 mmHg 67%
    01:00 +19°C° 0 mm 1 m/s 734 mmHg 68%
    02:00 +18°C° 0 mm 1 m/s 734 mmHg 70%
    03:00 +18°C° 0 mm 1 m/s 733 mmHg 71%
    04:00 +17°C° 0 mm 2 m/s 733 mmHg 72%
    05:00 +18°C° 0 mm 2 m/s 733 mmHg 71%
    06:00 +19°C° 0 mm 2 m/s 733 mmHg 70%
    07:00 +20°C° 0 mm 2 m/s 733 mmHg 70%
    08:00 +22°C° 0 mm 3 m/s 733 mmHg 63%
    09:00 +25°C° 0 mm 3 m/s 733 mmHg 57%
    10:00 +27°C° 0 mm 4 m/s 733 mmHg 51%
    11:00 +28°C° 0 mm 3 m/s 733 mmHg 48%
    12:00 +29°C° 0 mm 3 m/s 733 mmHg 44%
    13:00 +31°C° 0 mm 3 m/s 732 mmHg 41%
    14:00 +31°C° 0 mm 3 m/s 732 mmHg 40%
    15:00 +31°C° 0 mm 3 m/s 732 mmHg 39%
    16:00 +33°C° 0 mm 3 m/s 731 mmHg 38%
    17:00 +30°C° 0 mm 2 m/s 731 mmHg 46%
    18:00 +29°C° 0 mm 2 m/s 731 mmHg 53%
    19:00 +27°C° 0 mm 2 m/s 730 mmHg 60%
    20:00 +26°C° 0 mm 2 m/s 730 mmHg 63%
    21:00 +24°C° 0 mm 2 m/s 730 mmHg 66%
    22:00 +23°C° 0 mm 2 m/s 731 mmHg 69%
    23:00 +21°C° 0 mm 2 m/s 730 mmHg 73%

    Après-demain, 24 Juillet, Mercredi

    Heure Température Précipitation Vent Pression Humidité
    00:00 +20°C° 0 mm 2 m/s 730 mmHg 77%
    01:00 +20°C° 0 mm 2 m/s 730 mmHg 81%
    02:00 +19°C° 0 mm 2 m/s 729 mmHg 83%
    03:00 +20°C° 0 mm 1 m/s 729 mmHg 85%
    04:00 +19°C° 0 mm 1 m/s 729 mmHg 86%
    05:00 +20°C° 0 mm 1 m/s 729 mmHg 83%
    06:00 +21°C° 0 mm 1 m/s 729 mmHg 80%
    07:00 +22°C° 0 mm 1 m/s 730 mmHg 77%
    08:00 +24°C° 0 mm 1 m/s 730 mmHg 70%
    09:00 +26°C° 0 mm 1 m/s 730 mmHg 62%
    10:00 +28°C° 0 mm 1 m/s 730 mmHg 55%
    11:00 +30°C° 0 mm 1 m/s 730 mmHg 51%
    12:00 +32°C° 0 mm 1 m/s 730 mmHg 46%
    13:00 +33°C° 0 mm 1 m/s 730 mmHg 42%
    14:00 +34°C° 0 mm 1 m/s 730 mmHg 40%
    15:00 +34°C° 0 mm 1 m/s 729 mmHg 39%
    16:00 +34°C° 0 mm 1 m/s 729 mmHg 37%
    17:00 +33°C° 0 mm 1 m/s 729 mmHg 44%
    18:00 +31°C° 0 mm 1 m/s 729 mmHg 51%
    19:00 +29°C° 0 mm 1 m/s 728 mmHg 58%
    20:00 +28°C° 0 mm 1 m/s 729 mmHg 61%
    21:00 +26°C° 0 mm 1 m/s 729 mmHg 64%
    22:00 +24°C° 0 mm 1 m/s 729 mmHg 66%
    23:00 +24°C° 0 mm 1 m/s 729 mmHg 71%

    25 Juillet, Jeudi

    Heure Température Précipitation Vent Pression Humidité
    00:00 +23°C° 0 mm 1 m/s 729 mmHg 75%
    01:00 +23°C° 0 mm 1 m/s 729 mmHg 80%
    02:00 +22°C° 0 mm 1 m/s 729 mmHg 83%
    03:00 +21°C° 0 mm 1 m/s 728 mmHg 86%
    04:00 +20°C° 0 mm 2 m/s 728 mmHg 90%
    05:00 +21°C° 0 mm 2 m/s 728 mmHg 86%
    06:00 +23°C° 0 mm 2 m/s 728 mmHg 82%
    07:00 +24°C° 0 mm 2 m/s 729 mmHg 78%
    08:00 +26°C° 0 mm 2 m/s 729 mmHg 70%
    09:00 +28°C° 0 mm 3 m/s 729 mmHg 62%
    10:00 +30°C° 0 mm 3 m/s 729 mmHg 53%
    11:00 +31°C° 0 mm 3 m/s 729 mmHg 48%
    12:00 +34°C° 0 mm 3 m/s 729 mmHg 43%
    13:00 +35°C° 0 mm 3 m/s 728 mmHg 38%
    14:00 +35°C° 0 mm 3 m/s 728 mmHg 37%
    15:00 +36°C° 0 mm 3 m/s 728 mmHg 36%
    16:00 +36°C° 0 mm 3 m/s 727 mmHg 35%
    17:00 +34°C° 0 mm 3 m/s 727 mmHg 42%
    18:00 +32°C° 0 mm 2 m/s 727 mmHg 49%
    19:00 +30°C° 0 mm 2 m/s 726 mmHg 56%
    20:00 +29°C° 0 mm 2 m/s 726 mmHg 61%
    21:00 +27°C° 0 mm 2 m/s 726 mmHg 66%
    22:00 +26°C° 0 mm 2 m/s 726 mmHg 71%
    23:00 +25°C° 0 mm 2 m/s 726 mmHg 75%

    26 Juillet, Vendredi

    Heure Température Précipitation Vent Pression Humidité
    00:00 +25°C° 0 mm 2 m/s 726 mmHg 78%
    01:00 +24°C° 0 mm 1 m/s 726 mmHg 82%
    02:00 +23°C° 0 mm 1 m/s 725 mmHg 84%
    03:00 +23°C° 0 mm 1 m/s 725 mmHg 85%
    04:00 +22°C° 0 mm 1 m/s 725 mmHg 87%
    05:00 +23°C° 0 mm 1 m/s 725 mmHg 84%
    06:00 +24°C° 0 mm 1 m/s 725 mmHg 81%
    07:00 +25°C° 0 mm 1 m/s 725 mmHg 77%
    08:00 +27°C° 0 mm 2 m/s 725 mmHg 67%
    09:00 +28°C° 0 mm 3 m/s 725 mmHg 56%
    10:00 +29°C° 0 mm 4 m/s 726 mmHg 45%
    11:00 +29°C° 0.2 mm 4 m/s 725 mmHg 48%
    12:00 +29°C° 0.2 mm 4 m/s 725 mmHg 51%
    13:00 +29°C° 0.2 mm 3 m/s 725 mmHg 54%
    14:00 +30°C° 0 mm 3 m/s 725 mmHg 51%
    15:00 +32°C° 0 mm 4 m/s 725 mmHg 48%
    16:00 +33°C° 0 mm 4 m/s 725 mmHg 45%
    17:00 +30°C° 0.1 mm 3 m/s 725 mmHg 53%
    18:00 +29°C° 0.1 mm 3 m/s 725 mmHg 61%
    19:00 +28°C° 0.1 mm 2 m/s 725 mmHg 68%
    20:00 +26°C° 0.9 mm 2 m/s 725 mmHg 75%
    21:00 +24°C° 0.9 mm 2 m/s 726 mmHg 83%
    22:00 +21°C° 0.9 mm 3 m/s 726 mmHg 90%
    23:00 +21°C° 1.1 mm 3 m/s 726 mmHg 92%

    27 Juillet, Samedi

    Heure Température Précipitation Vent Pression Humidité
    00:00 +20°C° 1.1 mm 3 m/s 726 mmHg 94%
    01:00 +19°C° 1.1 mm 4 m/s 726 mmHg 96%
    02:00 +19°C° 0.6 mm 3 m/s 726 mmHg 96%
    03:00 +19°C° 0.6 mm 3 m/s 726 mmHg 97%
    04:00 +18°C° 0.6 mm 3 m/s 726 mmHg 97%
    05:00 +19°C° 0 mm 3 m/s 726 mmHg 96%
    06:00 +19°C° 0 mm 2 m/s 726 mmHg 96%
    07:00 +19°C° 0 mm 2 m/s 727 mmHg 95%
    08:00 +19°C° 0.3 mm 3 m/s 727 mmHg 92%
    09:00 +20°C° 0.3 mm 3 m/s 727 mmHg 90%
    10:00 +20°C° 0.3 mm 3 m/s 728 mmHg 87%
    11:00 +20°C° 0.5 mm 3 m/s 728 mmHg 89%
    12:00 +19°C° 0.5 mm 3 m/s 728 mmHg 91%
    13:00 +18°C° 0.5 mm 3 m/s 728 mmHg 93%
    14:00 +18°C° 0.5 mm 3 m/s 728 mmHg 92%
    15:00 +19°C° 0.5 mm 2 m/s 728 mmHg 92%
    16:00 +19°C° 0.5 mm 2 m/s 728 mmHg 92%
    17:00 +20°C° 0.5 mm 1 m/s 728 mmHg 91%
    18:00 +20°C° 0.5 mm 1 m/s 728 mmHg 91%
    19:00 +20°C° 0.5 mm 1 m/s 728 mmHg 91%
    20:00 +17°C° 0.1 mm 0 m/s 729 mmHg 92%
    21:00 +16°C° 0.1 mm 0 m/s 729 mmHg 92%
    22:00 +15°C° 0.1 mm 0 m/s 729 mmHg 93%
    23:00 +15°C° 0 mm 0 m/s 729 mmHg 93%
    Voir plus